Regional Weather Roundup
Issued by NWS Boston, MA

Home | Current Version | Previous Version | Text Only | Print | Product List | Glossary On
Versions: 1 2 3 4 5 6 7 8 9 10 11 12 13 14 15 16 17 18 19 20 21 22 23 24 25 26 27 28 29 30 31 32 33 34 35 36 37 38 39 40 41 42 43 44 45 46 47 48 49 50
000
ASUS41 KBOX 262310
RWRBOX

REGIONAL WEATHER ROUNDUP
NATIONAL WEATHER SERVICE TAUNTON MA
700 PM EDT FRI AUG 26 2016

NOTE:  "FAIR" INDICATES FEW OR NO CLOUDS BELOW 12,000 FEET WITH NO
SIGNIFICANT WEATHER AND/OR OBSTRUCTIONS TO VISIBILITY.

MAZALL-270000-
EASTERN MASSACHUSETTS

CITY           SKY/WX    TMP DP  RH WIND       PRES   REMARKS
BOSTON         PTCLDY    87  67  51 N7        29.95R HX  90
BEVERLY        CLEAR     83  67  58 NW6       29.95R
LAWRENCE       CLEAR     86  66  51 NW3       29.97R
BEDFORD        PTCLDY    83  65  54 NW3       29.95R
BLUE HILL        N/A     82  67  60 NW7       29.98R
NORWOOD        CLEAR     86  68  54 NW3       29.95R
MARSHFIELD     CLEAR     81  75  83 S6        29.95S
PLYMOUTH       MOCLDY    80  74  81 S6        29.97R
TAUNTON        CLEAR     83  75  77 E6        29.95R HX  90
NEW BEDFORD    PTCLDY    82  73  74 SW7       29.96R
$$

MAZALL-270000-
CAPE COD AND THE ISLANDS

CITY           SKY/WX    TMP DP  RH WIND       PRES   REMARKS
FALMOUTH       CLOUDY    75  73  94 SW8       29.97S
HYANNIS        CLOUDY    78  73  84 SW10      29.96R
CHATHAM        PTCLDY    76  75  97 SW6       29.98R
PROVINCETOWN   CLEAR     76  72  87 SW9       29.97R
NANTUCKET      CLOUDY    74  72  93 SW12      29.98R
MARTHAS VNYRD  PTCLDY    78  73  84 SW7       29.98R
$$

MAZALL-270000-
CENTRAL AND WESTERN MASSACHUSETTS

CITY           SKY/WX    TMP DP  RH WIND       PRES   REMARKS
WORCESTER      CLEAR     80  64  58 NW6       30.02R
FITCHBURG      CLEAR     85  64  49 W6        29.99R
ORANGE         CLEAR     81  64  56 NW3       30.00R
SPRINGFIELD    CLEAR     84  63  49 NW7       29.97S
WESTFIELD      CLEAR     84  64  50 NW9       29.99R
NORTH ADAMS    CLEAR     79  65  62 W6        30.02S
PITTSFIELD     CLEAR     77  63  61 W8        30.05R
$$

RIZALL-270000-
RHODE ISLAND

CITY           SKY/WX    TMP DP  RH WIND       PRES   REMARKS
PROVIDENCE     MOCLDY    87  67  51 NW9       29.97R HX  90
NEWPORT        CLEAR     80  73  79 SW6       29.97R
BLOCK ISLAND   PTCLDY    78  72  81 W10       29.99R
SMITHFIELD     CLEAR     81  70  69 N3        29.99R
WESTERLY       CLEAR     82  70  66 SW7       29.98R
$$

CTZALL-270000-
CONNECTICUT

CITY           SKY/WX    TMP DP  RH WIND       PRES   REMARKS
BRADLEY INTL   CLEAR     84  64  50 NW8       29.99R
HARTFORD       CLEAR     89  63  41 NW10      29.97S HX  90
BRIDGEPORT     CLEAR     88  62  41 NW7       29.98S
DANBURY        CLEAR     83  64  52 N5        30.03R
GROTON         CLEAR     80  72  76 CALM      29.97R
NEW HAVEN      PTCLDY    86  60  41 NW9       29.99R
CHESTER        FAIR      82  68  61 NW6       30.00R
MERIDEN        CLEAR     87  61  41 NW6       29.99R
WILLIMANTIC    CLEAR     86  71  60 NW3       29.98S HX  91
OXFORD         PTCLDY    81  61  50 N7        30.06R
$$

MEZ002-015-021-024-NHZ003-005-008-011-012-014-VTZ005-008-270000-
NORTHERN NEW ENGLAND

CITY           SKY/WX    TMP DP  RH WIND       PRES   REMARKS
PORTLAND ME    PTCLDY    84  68  58 W6        29.92R
BANGOR ME      MOCLDY    83  66  56 W6        29.88R
CONCORD NH     CLEAR     85  61  44 NW5       29.97R
MANCHESTER NH  PTCLDY    86  63  45 W6        29.95R
NASHUA NH      CLEAR     84  66  54 VRB5      29.97R
PORTSMOUTH NH  PTCLDY    83  67  58 W5        29.94R
JAFFREY NH     CLEAR     81  63  54 CALM      30.03R
KEENE NH       CLEAR     81  62  52 NW6       30.00R
BURLINGTON VT  PTCLDY    82  56  40 N7        30.02R
MT. WASHINGTON MOCLDY    50  48  93 W52         N/A
$$

NYZ052-076-270000-
EASTERN NEW YORK

CITY           SKY/WX    TMP DP  RH WIND       PRES   REMARKS
ALBANY         PTCLDY    81  62  52 W14       30.02R
NEW YORK CITY  PTCLDY    88  66  48 NW14      29.99R HX  90
$$

ANZALL-270000-
MARINE OBSERVATIONS

STATION/POSITION TIME  TEMP    WIND        PRES    VSBY  WAVE
                       AIR SEA DIR/SP/G                  HT/PER
                 (UTC) (F)     (DEG/KT/KT) (MB)    (MI)  (FT/S)
BOSTON BUOY      2250   73 72  180/  4/  6 1013.8R         1/ 8
BUZZARDS BAY     2200   73     240/ 14/ 14 1014.9R
NANTUCKET SOUND  2250   74 75  240/ 10/ 12 1014.7R         1/ 3
MASS BAY-STELLWA 2204   74 69  200/  4/  6 1013.5R  1 7/8  2/ 8
ISLE OF SHOALS   2300   81     230/  9/ 10 1013.7R
S OF BLOCK IS    2225      75                N/A           4/ 6
$$

......................KEY.........................
  SKY/WX - SKY CONDITION/PRESENT WEATHER
  TMP    - TEMPERATURE IN FAHRENHEIT
  DWPT   - DEWPOINT IN FAHRENHEIT
  RH     - RELATIVE HUMIDITY IN PERCENT
  WIND   - DIRECTION AND SPEED IN MPH
  PRES   - MEAN SEA LEVEL PRESSURE IN INCHES OF HG
  WCI    - WIND CHILL INDEX
  VSB    - VISIBILITY IN MILES
  HX     - HEAT INDEX
  TC     - TEMPERATURE IN CELSIUS
  VRB    - VARIABLE WIND DIRECTION
  N/A    - NOT AVAILABLE



USA.gov is the U.S. government's official web portal to all federal, state and local government web resources and services.